Regional Weather Roundup
Issued by NWS Cleveland, OH

Home | Current Version | Previous Version | Graphics & Text | Print | Product List | Glossary On
Versions: 1 2 3 4 5 6 7 8 9 10 11 12 13 14 15 16 17 18 19 20 21 22 23 24 25 26 27 28 29 30 31 32 33 34 35 36 37 38 39 40 41 42 43 44 45 46 47 48 49 50
000
ASUS41 KCLE 280600
RWRCLE
OHIO REGIONAL WEATHER ROUNDUP
NATIONAL WEATHER SERVICE WILMINGTON, OH
200 AM EDT SAT MAY 28 2016

NOTE: "FAIR" INDICATES FEW OR NO CLOUDS BELOW 12,000 FEET WITH NO
SIGNIFICANT WEATHER AND/OR OBSTRUCTIONS TO VISIBILITY.

OHZ001>008-015>018-024>027-034-035-043-044-280700-
   NORTHWEST OHIO

CITY           SKY/WX    TMP DP  RH WIND       PRES   REMARKS
DEFIANCE       FAIR      73  61  65 S5        29.99S
FINDLAY        FAIR      71  59  65 S7        30.01S
TOLEDO EXPRESS FAIR      73  60  63 S6        29.99S
TOLEDO EXEC    FAIR      74  60  61 SW7       30.00S
LIMA           FAIR      70  60  70 S6        30.02S
$$

OHZ009>014-019>023-028>033-038-089-280700-
   NORTHEAST OHIO

CITY           SKY/WX    TMP DP  RH WIND       PRES   REMARKS
CLE-HOPKINS    FAIR      78  62  57 S10       30.05R
CLE-LAKEFRONT  FAIR      77  63  61 SE8       30.01R
CUY CO. ARPT   NOT AVBL
LORAIN-ELYRIA  FAIR      72  62  71 S6        30.03S
ASHTABULA      FAIR      68  64  87 S5        30.05S
AKRON-CANTON   MOCLDY    72  64  76 S7        30.06S
WOOSTER        NOT AVBL
MANSFIELD      FAIR      71  63  75 S7        30.06S
YOUNGSTOWN     FAIR      72  63  73 S6        30.07R
$$

OHZ042-051>053-060>062-070>072-077>081-280700-
  SOUTHWEST OHIO

CITY           SKY/WX    TMP DP  RH WIND       PRES   REMARKS
CINC-COVINGTON MOCLDY    72  66  81 S12       30.02F
CINC-LUNKEN    FAIR      67  67 100 CALM      30.02F
HAMILTON       FAIR      72  65  78 E3        30.02F
DAYTON         NOT AVBL
WRIGHT-PAT AFB NOT AVBL
DAYTON GENERAL FAIR      72  62  71 S7        30.02F
WILMINGTON     MOCLDY    70  64  81 S6        30.04S
$$

OHZ036-037-039>041-045>050-054>059-063>069-073>076-082>088-280700-
  CENTRAL AND SOUTHEAST OHIO

CITY           SKY/WX    TMP DP  RH WIND       PRES   REMARKS
COLUMBUS       FAIR      71  64  78 CALM      30.03F
OSU AIRPORT    FAIR      74  64  71 S5        30.04S
BOLTON FIELD   NOT AVBL
RICKENBACK AFB NOT AVBL
NEWARK         FAIR      69  65  86 CALM      30.05R
MARION         FAIR      69  62  78 S5        30.05R
LANCASTER      FAIR      68  65  90 CALM      30.05S
ZANESVILLE     FAIR      72  66  81 CALM      30.06S
NEW PHILLY     FAIR      69  64  84 E3        30.06S
$$




USA.gov is the U.S. government's official web portal to all federal, state and local government web resources and services.